FW7467 Weather Reports


time (UTC)temp
F
wind
direction
speed
knots
gust
knots
rain 1hr
in
rain 24hr
in
rain mn
in
humidity
%
barometer
mb
20260507211512 57 295 11.3 18.2 0.00 0.11 0.01 36 1004.6
20260507210006 57 290 7.0 16.5 0.00 0.12 0.01 38 1004.6
20260507204505 56 309 7.0 19.1 0.00 0.12 0.01 38 1004.5
20260507203007 57 298 5.2 13.9 0.00 0.12 0.01 38 1004.4
20260507201505 57 345 7.0 22.6 0.00 0.13 0.01 40 1004.4
20260507200004 56 298 7.0 16.5 0.00 0.13 0.01 39 1004.4
20260507194507 57 275 4.3 15.6 0.00 0.14 0.01 44 1004.4
20260507193029 58 283 5.2 13.0 0.00 0.16 0.01 41 1004.4
20260507191528 57 327 5.2 15.6 0.00 0.17 0.01 42 1004.5
20260507190027 58 277 8.7 13.0 0.00 0.19 0.01 39 1004.5
20260507184524 59 280 7.8 14.8 0.00 0.20 0.01 39 1004.6
20260507183027 59 317 6.1 11.3 0.00 0.21 0.01 42 1004.6
20260507181528 58 300 8.7 13.9 0.00 0.24 0.01 41 1004.7
20260507180026 58 254 1.7 13.9 0.00 0.31 0.01 43 1004.9
20260507174527 58 305 7.8 14.8 0.00 0.50 0.01 43 1005.0
20260507173038 57 254 4.3 9.6 0.00 0.57 0.01 43 1005.1
20260507171526 56 279 3.5 11.3 0.00 0.58 0.01 46 1005.1
20260507170026 56 276 4.3 12.2 0.00 0.58 0.01 53 1005.3
20260507164526 55 299 5.2 14.8 0.00 0.58 0.01 56 1005.6
20260507163027 56 319 4.3 12.2 0.00 0.58 0.01 57 1005.5
20260507161509 56 128 2.6 8.7 0.00 0.58 0.01 63 1005.4
20260507160007 56 297 4.3 8.7 0.00 0.58 0.01 59 1005.3
20260507154504 55 259 0.9 7.0 0.00 0.58 0.01 61 1005.5
20260507153006 55 294 2.6 8.7 0.00 0.58 0.01 63 1005.6
20260507151504 55 265 3.5 7.8 0.00 0.58 0.01 63 1005.9
20260507150006 54 36 4.3 9.6 0.00 0.58 0.01 64 1005.9
20260507144508 53 304 4.3 10.4 0.00 0.58 0.01 64 1005.9
20260507143009 54 296 3.5 8.7 0.00 0.58 0.01 65 1006.1
20260507141506 54 318 6.1 8.7 0.00 0.58 0.01 62 1006.1
20260507140007 54 279 0.9 7.0 0.00 0.58 0.01 63 1006.1
20260507134507 55 311 3.5 8.7 0.00 0.58 0.01 62 1006.2
20260507133004 55 26 0.9 9.6 0.00 0.58 0.01 65 1006.4
20260507131507 54 82 0.9 8.7 0.00 0.58 0.01 67 1006.6
20260507130010 53 109 0.0 11.3 0.00 0.58 0.01 70 1006.5
20260507124511 52 290 0.9 12.2 0.00 0.58 0.01 68 1006.6
20260507123009 52 304 2.6 11.3 0.00 0.58 0.01 69 1006.7
20260507121510 51 335 2.6 9.6 0.00 0.58 0.01 71 1006.7
20260507120009 50 289 2.6 9.6 0.00 0.58 0.01 74 1006.6
20260507114507 49 279 3.5 12.2 0.00 0.58 0.01 71 1006.8
20260507113013 48 311 4.3 7.8 0.00 0.58 0.01 74 1006.9
20260507111509 47 344 1.7 5.2 0.00 0.58 0.01 77 1007.0
20260507110011 45 360 1.7 5.2 0.00 0.58 0.01 81 1006.9
20260507104511 45 360 0.9 5.2 0.00 0.58 0.01 82 1007.0
20260507103010 44 360 1.7 5.2 0.00 0.58 0.01 82 1007.1
20260507101513 45 360 1.7 7.8 0.00 0.58 0.01 82 1006.8
20260507100017 45 360 1.7 3.5 0.00 0.58 0.01 79 1006.7
20260507094512 45 360 1.7 7.0 0.00 0.58 0.01 78 1006.7
20260507093019 45 360 1.7 7.0 0.00 0.58 0.01 78 1006.5
20260507091525 45 360 1.7 5.2 0.00 0.58 0.01 79 1006.5
20260507090019 46 360 0.9 3.5 0.00 0.58 0.01 79 1006.7
20260507084523 46 360 0.9 5.2 0.00 0.58 0.01 81 1006.7
20260507083017 45 360 0.9 2.6 0.00 0.58 0.01 81 1006.8
20260507081522 45 360 0.9 3.5 0.00 0.58 0.01 83 1006.3
20260507080016 46 360 0.9 7.0 0.00 0.58 0.01 83 1006.2
20260507074518 46 360 0.9 5.2 0.00 0.58 0.01 82 1006.2
20260507073016 46 360 1.7 9.6 0.00 0.58 0.01 82 1006.3
20260507071507 46 360 3.5 9.6 0.00 0.58 0.01 83 1006.5
20260507070010 46 360 2.6 9.6 0.00 0.58 0.01 84 1006.0
20260507064508 46 360 3.5 16.5 0.00 0.58 0.01 84 1006.1
20260507063003 46 360 4.3 13.0 0.00 0.58 0.01 86 1006.0
20260507061505 46 360 2.6 12.2 0.00 0.58 0.01 88 1005.5
20260507060005 46 360 5.2 12.2 0.00 0.58 0.01 88 1005.4
20260507054504 47 360 3.5 8.7 0.00 0.58 0.01 87 1005.5
20260507053004 47 360 2.6 11.3 0.00 0.58 0.01 87 1005.5
20260507051506 47 360 2.6 13.0 0.01 0.58 0.01 88 1005.1
20260507050007 47 360 2.6 9.6 0.01 0.58 0.01 90 1004.6
20260507044518 48 360 2.6 8.7 0.02 0.58 0.01 91 1004.9
20260507043005 47 360 2.6 7.0 0.02 0.58 0.01 92 1005.0
20260507041505 48 360 0.0 7.8 0.02 0.57 0.00 92 1005.1
20260507040007 48 360 1.7 7.8 0.02 0.57 0.00 91 1005.2
20260507034507 49 360 0.9 8.7 0.01 0.56 0.56 91 1005.2
20260507033004 49 360 0.0 7.8 0.02 0.56 0.56 92 1005.0
20260507031507 49 360 0.9 4.3 0.01 0.55 0.55 93 1004.7
20260507030016 50 360 1.7 7.0 0.02 0.55 0.55 93 1004.8
20260507024514 50 360 3.5 9.6 0.02 0.55 0.55 93 1004.6
20260507023015 51 360 3.5 13.0 0.01 0.54 0.54 93 1004.3
20260507021520 51 360 4.3 11.3 0.01 0.54 0.54 93 1004.3
20260507020014 52 360 2.6 8.7 0.00 0.52 0.52 92 1004.4
20260507014515 53 360 2.6 7.8 0.00 0.52 0.52 92 1004.1
20260507013016 54 360 1.7 9.6 0.00 0.52 0.52 92 1004.3
20260507011520 54 360 2.6 7.0 0.00 0.52 0.52 93 1004.0
20260507010025 54 360 0.9 5.2 0.00 0.52 0.52 95 1004.1
20260507004516 54 360 0.9 5.2 0.01 0.52 0.52 95 1004.0
20260507003026 55 360 1.7 7.0 0.01 0.52 0.52 94 1003.9
20260507001524 55 360 2.6 7.0 0.02 0.52 0.52 95 1003.7
20260507000019 56 355 0.9 4.3 0.03 0.52 0.52 95 1003.5
20260506234520 58 347 1.7 6.1 0.04 0.52 0.52 98 1003.4
20260506233020 59 153 6.1 11.3 0.05 0.52 0.52 98 1003.0
20260506231520 58 116 4.3 9.6 0.04 0.51 0.51 99 1003.2
20260506230021 58 130 1.7 3.5 0.03 0.50 0.50 98 1003.1
20260506224524 59 122 0.9 3.5 0.01 0.48 0.48 98 1003.4
20260506223023 59 104 1.7 6.1 0.00 0.47 0.47 98 1003.5
20260506221522 58 128 1.7 6.1 0.00 0.47 0.47 97 1003.7
20260506220020 58 128 1.7 6.1 0.01 0.48 0.47 97 1004.0
20260506214505 58 132 3.5 8.7 0.01 0.50 0.47 97 1004.3
20260506213005 59 139 6.1 10.4 0.01 0.50 0.47 96 1004.4